Location: Coors Field
(39.7564°N, 104.9943°W)
Time: 10:27:12
(UTC-06:00)

ISS - Visible Passes

Search period start: 23 May 2015 00:00
Search period end: 02 June 2015 00:00
Orbit: 399 x 404 km, 51.6° (Epoch: 23 May)

Date Brightness Start Highest point End Pass type
(mag) Time Alt. Az. Time Alt. Az. Time Alt. Az.
23 May -0.9 02:20:44 23° NNE 02:20:44 23° NNE 02:22:21 10° NE visible
23 May -0.4 03:55:08 10° NW 03:56:31 12° N 03:57:52 10° NNE visible
24 May 0.0 01:29:11 11° NE 01:29:11 11° NE 01:29:17 10° NE visible
24 May -0.6 03:01:45 13° NW 03:03:00 15° NNW 03:04:57 10° NNE visible
24 May -0.1 04:39:47 10° N 04:40:30 11° N 04:41:14 10° NNE visible
25 May -0.7 02:10:09 19° N 02:10:09 19° N 02:12:01 10° NNE visible
25 May -0.1 03:46:15 10° NNW 03:46:55 10° N 03:47:35 10° N visible
26 May -0.2 01:18:27 14° NNE 01:18:27 14° NNE 01:19:02 10° NE visible
26 May -0.2 02:52:08 10° NNW 02:53:20 12° N 02:54:31 10° NNE visible
26 May -0.2 04:29:27 10° NNW 04:30:52 12° N 04:32:19 10° NE visible
27 May -0.3 01:59:12 14° NNW 01:59:45 14° NNW 02:01:33 10° NNE visible
27 May 0.0 03:36:27 10° N 03:37:15 11° N 03:38:06 10° NNE visible
28 May -0.3 01:07:15 16° N 01:07:15 16° N 01:08:34 10° NNE visible
28 May 0.1 02:43:03 10° NNW 02:43:37 10° N 02:44:11 10° N visible
28 May -0.3 04:18:55 10° NNW 04:21:05 16° NNE 04:23:17 10° ENE visible
29 May -0.2 00:15:03 13° NNE 00:15:03 13° NNE 00:15:32 10° NNE visible
29 May 0.1 01:48:55 10° NNW 01:49:57 11° N 01:50:59 10° N visible
29 May 0.0 03:25:56 10° NNW 03:27:29 13° NNE 03:29:05 10° NE visible
29 May -1.9 05:01:28 10° NW 05:04:34 41° NNE 05:07:41 10° ESE visible
29 May -0.4 23:22:13 11° NE 23:22:13 11° NE 23:22:23 10° NE visible
30 May 0.0 00:54:39 10° NW 00:56:18 13° NNW 00:57:57 10° NNE visible
30 May 0.2 02:32:53 10° N 02:33:49 11° N 02:34:46 10° NNE visible
30 May -0.9 04:08:20 10° NNW 04:11:07 25° NNE 04:13:54 10° E visible
30 May -3.5 22:22:39 10° SW 22:25:52 90° NW 22:29:08 10° NE visible
31 May -0.3 00:00:25 10° WNW 00:02:41 17° NNW 00:04:55 10° NNE visible
31 May 0.3 01:39:35 10° N 01:40:07 10° N 01:40:39 10° N visible
31 May -0.3 03:15:16 10° NNW 03:17:33 18° NNE 03:19:52 10° ENE visible
31 May -3.4 04:51:05 10° NW 04:54:20 86° SW 04:57:35 10° SE visible
31 May -3.0 21:29:30 10° SSW 21:32:34 42° SE 21:35:40 10° ENE visible
31 May -0.9 23:06:21 10° W 23:09:05 24° NNW 23:11:50 10° NNE visible
01 Jun 0.3 00:45:30 10° NNW 00:46:23 11° N 00:47:16 10° N visible
01 Jun 0.1 02:22:12 10° NNW 02:23:54 13° NNE 02:25:38 10° NE visible
01 Jun -2.3 03:57:47 10° NW 04:00:56 48° NNE 04:04:06 10° ESE visible
01 Jun -1.9 22:12:30 10° WSW 22:15:34 39° NNW 22:18:38 10° NE visible
01 Jun 0.2 23:51:09 10° NW 23:52:40 13° NNW 23:54:10 10° NNE visible
